Overview Statistics Trail Chart Weather Telemetry Raw packets
 

This is the latest recevied weather packets stored in our database for station/object F5TND-14. If no packets are shown the sender has not sent any weather packets the latest 10 day(s).

<< 1 2 3 4 >>
Time Temp. Humidity Pressure Rain* Wind** Luminosity Snow
1788574036 23.33° C 61% 1024.8 hPa - - - -
1788573436 23.33° C 61% 1024.7 hPa - - - -
1788572835 23.33° C 61% 1024.7 hPa - - - -
1788572235 23.33° C 61% 1024.7 hPa - - - -
1788571635 23.33° C 61% 1024.7 hPa - - - -
1788571035 23.33° C 61% 1024.7 hPa - - - -
1788570435 23.33° C 60% 1024.7 hPa - - - -
1788569835 23.89° C 60% 1024.7 hPa - - - -
1788569235 23.89° C 61% 1024.5 hPa - - - -
1788568635 23.33° C 60% 1024.5 hPa - - - -
1788568035 23.89° C 61% 1024.6 hPa - - - -
1788567435 23.89° C 61% 1024.5 hPa - - - -
1788566835 23.33° C 61% 1024.4 hPa - - - -
1788566235 23.89° C 60% 1024.4 hPa - - - -
1788565634 23.33° C 61% 1024.3 hPa - - - -
1788565034 23.33° C 61% 1024.2 hPa - - - -
1788564434 23.33° C 63% 1024.2 hPa - - - -
1788563834 22.78° C 64% 1024.4 hPa - - - -
1788563234 22.22° C 67% 1024.4 hPa - - - -
1788562634 20.56° C 72% 1024.2 hPa - - - -
1788562034 21.11° C 71% 1024 hPa - - - -
1788561434 21.11° C 71% 1024.1 hPa - - - -
1788560833 21.67° C 70% 1024.1 hPa - - - -
1788560262 21.67° C 69% 1024.1 hPa - - - -
1788559632 21.67° C 69% 1024 hPa - - - -

* Rain since midnight (hover to see other rain measurements)
** Current wind speed in m/s (hover to see current wind gust speed)